{"data":{"norad_id":55358,"epoch":"2026-09-20T12:44:40.971264Z","epoch_age_seconds":93947,"freshness":"FRESH","line1":"1 55358U 23013AD  26263.53102976 -.00000257  00000+0  19598-6 0  9999","line2":"2 55358  43.0025 282.8959 0001570 268.1825  91.8846 15.27574307201471","mean_motion":15.27574307,"eccentricity":0.000157,"inclination_deg":43.0025,"raan_deg":282.8959,"arg_perigee_deg":268.1825,"mean_anomaly_deg":91.8846,"bstar":1.9598e-7,"rev_number":20147,"period_min":94.267100029197,"perigee_km":481.98893408919,"apogee_km":484.14335187609,"semimajor_km":6861.2031429826,"source":"CELESTRAK","updated_at":"2026-09-21T09:00:33.184815Z"}}